• In Romania
  • List of Countries
  • For 7 days
  • Water Temperature
  • Satellite Maps
  • Weather Map
  • Weather Widgets
  • user-avatar
    Login

    Hourly Weather Ropotamo

    Today, 17 October, Tuesday

    Time Temperature Precipitation Wind Pressure Humidity
    00:00 +15°C° 0 mm 1 mps 768 mmHg 85%
    01:00 +14°C° 0 mm 1 mps 768 mmHg 85%
    02:00 +14°C° 0 mm 1 mps 767 mmHg 85%
    03:00 +14°C° 0 mm 1 mps 767 mmHg 85%
    04:00 +14°C° 0 mm 1 mps 767 mmHg 85%
    05:00 +14°C° 0 mm 1 mps 767 mmHg 84%
    06:00 +15°C° 0 mm 1 mps 767 mmHg 79%
    07:00 +16°C° 0 mm 1 mps 767 mmHg 74%
    08:00 +18°C° 0 mm 1 mps 767 mmHg 68%
    09:00 +20°C° 0 mm 1 mps 767 mmHg 59%
    10:00 +23°C° 0 mm 1 mps 767 mmHg 50%
    11:00 +25°C° 0 mm 1 mps 767 mmHg 41%
    12:00 +26°C° 0 mm 1 mps 766 mmHg 39%
    13:00 +27°C° 0 mm 2 mps 766 mmHg 36%
    14:00 +27°C° 0 mm 2 mps 766 mmHg 33%
    15:00 +26°C° 0 mm 2 mps 765 mmHg 38%
    16:00 +24°C° 0 mm 2 mps 765 mmHg 43%
    17:00 +23°C° 0 mm 2 mps 765 mmHg 48%
    18:00 +21°C° 0 mm 2 mps 765 mmHg 51%
    19:00 +19°C° 0 mm 2 mps 765 mmHg 53%
    20:00 +18°C° 0 mm 2 mps 765 mmHg 56%
    21:00 +19°C° 0 mm 1 mps 765 mmHg 55%
    22:00 +19°C° 0 mm 1 mps 765 mmHg 53%
    23:00 +18°C° 0 mm 1 mps 765 mmHg 52%

    Tomorrow, 18 October, Wednesday

    Time Temperature Precipitation Wind Pressure Humidity
    00:00 +18°C° 0 mm 1 mps 764 mmHg 51%
    01:00 +18°C° 0 mm 1 mps 764 mmHg 51%
    02:00 +16°C° 0 mm 0 mps 764 mmHg 50%
    03:00 +15°C° 0 mm 0 mps 764 mmHg 50%
    04:00 +15°C° 0 mm 0 mps 764 mmHg 51%
    05:00 +15°C° 0 mm 0 mps 763 mmHg 51%
    06:00 +16°C° 0 mm 0 mps 763 mmHg 50%
    07:00 +17°C° 0 mm 0 mps 763 mmHg 49%
    08:00 +18°C° 0 mm 0 mps 764 mmHg 48%
    09:00 +20°C° 0 mm 0 mps 763 mmHg 43%
    10:00 +24°C° 0 mm 1 mps 763 mmHg 38%
    11:00 +26°C° 0 mm 1 mps 763 mmHg 33%
    12:00 +26°C° 0 mm 1 mps 763 mmHg 33%
    13:00 +27°C° 0 mm 2 mps 762 mmHg 33%
    14:00 +27°C° 0 mm 2 mps 762 mmHg 33%
    15:00 +26°C° 0 mm 2 mps 762 mmHg 39%
    16:00 +24°C° 0 mm 2 mps 761 mmHg 45%
    17:00 +21°C° 0 mm 2 mps 761 mmHg 51%
    18:00 +20°C° 0 mm 2 mps 761 mmHg 55%
    19:00 +19°C° 0 mm 2 mps 761 mmHg 58%
    20:00 +18°C° 0 mm 1 mps 761 mmHg 61%
    21:00 +18°C° 0 mm 1 mps 761 mmHg 62%
    22:00 +16°C° 0 mm 1 mps 761 mmHg 62%
    23:00 +16°C° 0 mm 1 mps 761 mmHg 62%

    Day after tomorrow, 19 October, Thursday

    Time Temperature Precipitation Wind Pressure Humidity
    00:00 +16°C° 0 mm 1 mps 761 mmHg 63%
    01:00 +15°C° 0 mm 1 mps 761 mmHg 63%
    02:00 +15°C° 0 mm 1 mps 761 mmHg 64%
    03:00 +14°C° 0 mm 0 mps 760 mmHg 64%
    04:00 +14°C° 0 mm 0 mps 760 mmHg 64%
    05:00 +14°C° 0 mm 0 mps 760 mmHg 65%
    06:00 +15°C° 0 mm 0 mps 760 mmHg 62%
    07:00 +16°C° 0 mm 0 mps 760 mmHg 59%
    08:00 +17°C° 0 mm 0 mps 760 mmHg 56%
    09:00 +21°C° 0 mm 1 mps 760 mmHg 50%
    10:00 +23°C° 0 mm 1 mps 760 mmHg 43%
    11:00 +25°C° 0 mm 1 mps 760 mmHg 36%
    12:00 +26°C° 0 mm 1 mps 760 mmHg 35%
    13:00 +27°C° 0 mm 1 mps 759 mmHg 33%
    14:00 +27°C° 0 mm 2 mps 759 mmHg 32%
    15:00 +26°C° 0 mm 2 mps 759 mmHg 38%
    16:00 +24°C° 0 mm 2 mps 759 mmHg 44%
    17:00 +21°C° 0 mm 2 mps 759 mmHg 50%
    18:00 +20°C° 0 mm 2 mps 759 mmHg 54%
    19:00 +19°C° 0 mm 2 mps 759 mmHg 59%
    20:00 +18°C° 0 mm 2 mps 759 mmHg 63%
    21:00 +18°C° 0 mm 2 mps 759 mmHg 63%
    22:00 +18°C° 0 mm 1 mps 759 mmHg 64%
    23:00 +18°C° 0 mm 1 mps 760 mmHg 64%

    20 October, Friday

    Time Temperature Precipitation Wind Pressure Humidity
    00:00 +18°C° 0 mm 1 mps 759 mmHg 64%
    01:00 +16°C° 0 mm 1 mps 759 mmHg 64%
    02:00 +16°C° 0 mm 1 mps 759 mmHg 65%
    03:00 +16°C° 0 mm 1 mps 759 mmHg 65%
    04:00 +16°C° 0 mm 1 mps 759 mmHg 65%
    05:00 +16°C° 0 mm 1 mps 759 mmHg 65%
    06:00 +16°C° 0 mm 1 mps 759 mmHg 63%
    07:00 +18°C° 0 mm 1 mps 760 mmHg 60%
    08:00 +19°C° 0 mm 1 mps 760 mmHg 57%
    09:00 +21°C° 0 mm 1 mps 760 mmHg 50%
    10:00 +24°C° 0 mm 1 mps 760 mmHg 43%
    11:00 +26°C° 0 mm 1 mps 760 mmHg 36%
    12:00 +27°C° 0 mm 1 mps 760 mmHg 34%
    13:00 +27°C° 0 mm 1 mps 760 mmHg 32%
    14:00 +28°C° 0 mm 1 mps 759 mmHg 31%
    15:00 +26°C° 0 mm 2 mps 759 mmHg 35%
    16:00 +25°C° 0 mm 2 mps 759 mmHg 40%
    17:00 +23°C° 0 mm 2 mps 759 mmHg 44%
    18:00 +21°C° 0 mm 2 mps 759 mmHg 47%
    19:00 +20°C° 0 mm 2 mps 760 mmHg 49%
    20:00 +19°C° 0 mm 2 mps 760 mmHg 51%
    21:00 +20°C° 0 mm 1 mps 760 mmHg 52%
    22:00 +19°C° 0 mm 1 mps 760 mmHg 52%
    23:00 +19°C° 0 mm 1 mps 760 mmHg 52%

    21 October, Saturday

    Time Temperature Precipitation Wind Pressure Humidity
    00:00 +19°C° 0 mm 1 mps 760 mmHg 53%
    01:00 +19°C° 0 mm 1 mps 760 mmHg 54%
    02:00 +18°C° 0 mm 1 mps 760 mmHg 55%
    03:00 +18°C° 0 mm 1 mps 760 mmHg 56%
    04:00 +18°C° 0 mm 1 mps 760 mmHg 57%
    05:00 +18°C° 0 mm 1 mps 760 mmHg 58%
    06:00 +17°C° 0 mm 2 mps 760 mmHg 57%
    07:00 +18°C° 0 mm 2 mps 760 mmHg 56%
    08:00 +19°C° 0 mm 2 mps 761 mmHg 55%
    09:00 +21°C° 0 mm 2 mps 761 mmHg 51%
    10:00 +24°C° 0 mm 2 mps 761 mmHg 46%
    11:00 +26°C° 0 mm 2 mps 761 mmHg 41%
    12:00 +26°C° 0 mm 2 mps 760 mmHg 39%
    13:00 +27°C° 0 mm 2 mps 760 mmHg 37%
    14:00 +27°C° 0 mm 2 mps 759 mmHg 35%
    15:00 +26°C° 0 mm 2 mps 759 mmHg 40%
    16:00 +24°C° 0 mm 2 mps 759 mmHg 44%
    17:00 +23°C° 0 mm 1 mps 759 mmHg 49%
    18:00 +22°C° 0 mm 1 mps 759 mmHg 53%
    19:00 +21°C° 0 mm 1 mps 759 mmHg 57%
    20:00 +19°C° 0 mm 1 mps 759 mmHg 61%
    21:00 +19°C° 0 mm 1 mps 759 mmHg 62%
    22:00 +19°C° 0 mm 1 mps 759 mmHg 63%
    23:00 +18°C° 0 mm 1 mps 759 mmHg 64%

    22 October, Sunday

    Time Temperature Precipitation Wind Pressure Humidity
    00:00 +18°C° 0 mm 1 mps 759 mmHg 64%
    01:00 +18°C° 0 mm 1 mps 759 mmHg 64%
    02:00 +18°C° 0 mm 1 mps 759 mmHg 64%
    03:00 +16°C° 0 mm 1 mps 759 mmHg 64%
    04:00 +16°C° 0 mm 1 mps 759 mmHg 64%
    05:00 +16°C° 0 mm 2 mps 758 mmHg 64%
    06:00 +17°C° 0 mm 2 mps 758 mmHg 61%
    07:00 +17°C° 0 mm 2 mps 758 mmHg 59%
    08:00 +18°C° 0 mm 2 mps 758 mmHg 56%
    09:00 +20°C° 0 mm 2 mps 758 mmHg 49%
    10:00 +23°C° 0 mm 2 mps 758 mmHg 43%
    11:00 +25°C° 0 mm 2 mps 758 mmHg 36%
    12:00 +26°C° 0 mm 2 mps 758 mmHg 34%
    13:00 +26°C° 0 mm 1 mps 758 mmHg 32%
    14:00 +27°C° 0 mm 1 mps 757 mmHg 29%
    15:00 +25°C° 0 mm 1 mps 757 mmHg 34%
    16:00 +24°C° 0 mm 2 mps 757 mmHg 38%
    17:00 +23°C° 0 mm 2 mps 757 mmHg 42%
    18:00 +20°C° 0 mm 2 mps 758 mmHg 46%
    19:00 +20°C° 0 mm 1 mps 758 mmHg 49%
    20:00 +19°C° 0 mm 1 mps 758 mmHg 53%
    21:00 +19°C° 0 mm 1 mps 758 mmHg 55%
    22:00 +18°C° 0 mm 1 mps 758 mmHg 57%
    23:00 +18°C° 0 mm 1 mps 758 mmHg 59%
    Show more